DHX683 EDDF-LOWI

Flight info

Callsign DHX683
Flight time N/A
Altitude 29000
Route CINDY8S/18 CINDY Z74 LAMPU/N0413F230 Z54 NOMBO Y161 MANAL M736 TULSI TULSI3A
Aircraft B738/M-SDE2E3FGHIRWXY/LB1

Departure

Time 2026-04-14 12:16
Airport Frankfurt Main Airport (EDDF)

Arrival

Time N/A
Airport Innsbruck Airport (LOWI)
Time Latitude Longitude Altitude Speed Heading
2026-04-14 12:03 50.03820 8.53495 350 ft 0 kts 340°
2026-04-14 12:10 50.03817 8.53497 350 ft 1 kts 340°
2026-04-14 12:10 50.03807 8.53502 350 ft 1 kts 340°
2026-04-14 12:11 50.03796 8.53508 350 ft 1 kts 341°
2026-04-14 12:11 50.03786 8.53512 350 ft 1 kts 359°
2026-04-14 12:11 50.03776 8.53507 349 ft 1 kts 54°
2026-04-14 12:11 50.03774 8.53500 349 ft 0 kts 70°
2026-04-14 12:13 50.03769 8.53510 349 ft 4 kts 134°
2026-04-14 12:13 50.03718 8.53557 348 ft 12 kts 157°
2026-04-14 12:13 50.03630 8.53510 347 ft 17 kts 240°
2026-04-14 12:14 50.03580 8.53291 343 ft 26 kts 246°
2026-04-14 12:14 50.03505 8.52992 341 ft 28 kts 252°
2026-04-14 12:14 50.03438 8.52736 339 ft 24 kts 247°
2026-04-14 12:14 50.03337 8.52592 338 ft 4 kts 186°
2026-04-14 12:15 50.03332 8.52591 337 ft 3 kts 185°
2026-04-14 12:15 50.03228 8.52590 335 ft 34 kts 179°
2026-04-14 12:15 50.02665 8.52599 328 ft 133 kts 181°
2026-04-14 12:15 50.01415 8.52588 522 ft 212 kts 181°
2026-04-14 12:16 49.99816 8.52539 1542 ft 252 kts 179°
2026-04-14 12:16 49.98056 8.52862 3106 ft 269 kts 164°
2026-04-14 12:16 49.96399 8.54053 4558 ft 272 kts 141°
2026-04-14 12:16 49.95223 8.56262 5672 ft 273 kts 109°
2026-04-14 12:17 49.94925 8.59089 6568 ft 270 kts 94°
2026-04-14 12:17 49.94500 8.61961 7452 ft 276 kts 102°
2026-04-14 12:17 49.94117 8.64899 8324 ft 279 kts 96°
2026-04-14 12:17 49.93652 8.67799 9194 ft 285 kts 109°
2026-04-14 12:18 49.92756 8.70539 10065 ft 288 kts 126°
2026-04-14 12:18 49.91303 8.72655 10958 ft 291 kts 144°
2026-04-14 12:18 49.89611 8.74403 11838 ft 295 kts 147°
2026-04-14 12:18 49.88023 8.76393 12696 ft 300 kts 130°
2026-04-14 12:19 49.86916 8.79146 13590 ft 306 kts 117°
2026-04-14 12:19 49.85957 8.82151 14481 ft 312 kts 117°
2026-04-14 12:19 49.84968 8.85119 15349 ft 317 kts 118°
2026-04-14 12:19 49.83921 8.88120 16223 ft 322 kts 118°
2026-04-14 12:20 49.82836 8.91161 17102 ft 326 kts 118°
2026-04-14 12:20 49.81722 8.94248 17985 ft 330 kts 118°
2026-04-14 12:20 49.80602 8.97335 18860 ft 332 kts 119°
2026-04-14 12:20 49.79466 9.00457 19742 ft 334 kts 119°
2026-04-14 12:21 49.78337 9.03565 20615 ft 335 kts 119°
2026-04-14 12:21 49.77214 9.06649 21481 ft 335 kts 118°
2026-04-14 12:21 49.76188 9.09900 22365 ft 334 kts 110°
2026-04-14 12:21 49.75518 9.13272 23235 ft 332 kts 104°
2026-04-14 12:22 49.74929 9.16653 24103 ft 327 kts 108°
2026-04-14 12:22 49.74015 9.19825 24833 ft 326 kts 123°
2026-04-14 12:22 49.72608 9.22668 25142 ft 339 kts 130°
2026-04-14 12:22 49.71037 9.25462 25174 ft 351 kts 131°
2026-04-14 12:23 49.69395 9.28348 25176 ft 363 kts 131°
2026-04-14 12:23 49.67707 9.31328 25174 ft 374 kts 131°
2026-04-14 12:23 49.65989 9.34369 25173 ft 384 kts 131°
2026-04-14 12:23 49.64214 9.37509 25172 ft 394 kts 131°
2026-04-14 12:24 49.62233 9.40521 25173 ft 401 kts 140°
2026-04-14 12:24 49.59977 9.43068 25174 ft 409 kts 146°
2026-04-14 12:24 49.57557 9.45464 25172 ft 417 kts 148°
2026-04-14 12:24 49.55048 9.47838 25173 ft 424 kts 149°
2026-04-14 12:25 49.52503 9.50210 25173 ft 432 kts 149°
2026-04-14 12:25 49.49910 9.52610 25172 ft 439 kts 149°
2026-04-14 12:25 49.47268 9.55046 25173 ft 445 kts 149°
2026-04-14 12:25 49.44600 9.57505 25172 ft 450 kts 149°
2026-04-14 12:26 49.41910 9.59976 25172 ft 451 kts 149°